Tracking 32523 objects as of 13-Dec-2025
HD Live streaming from Space Station
objects crossing your sky now

USA 82

Track USA 82 now!
USA 82 is classified as:


NORAD ID: 22009
Int'l Code: 1992-037A
Perigee: 36,187.0 km
Apogee: 36,229.4 km
Inclination: 14.1 °
Period: 1,457.3 minutes
Semi major axis: 42579 km
RCS: Unknown
Launch date: July 2, 1992
Source: United States (US)
Launch site: AIR FORCE EASTERN TEST RANGE (AFETR)

Super High Frequency (SHF) for U.S. government and military; sophisticated survivability enhancement; worldwide, longhaul coverage; X-band.
Your satellite tracking list
Your tracking list is empty




NASA's NSSDC Master Catalog

Two Line Element Set (TLE):
1 22009U 92037A   25346.17747850  .00000001  00000-0  00000-0 0  9994
2 22009  14.0976  11.0170 0004982   8.8787 346.2208  0.98811390 23293
Source of the keplerian elements: McCants